GW4266 Weather Reports


time (UTC)temp
C
wind
direction
speed
KPH
gust
KPH
rain 1hr
cm
rain 24hr
cm
rain mn
cm
humidity
%
barometer
mb
20260510034012 24 98 0.0 1.6 0.00 0.00 0.00 84 1014.7
20260510033508 25 113 0.0 0.0 0.00 0.00 0.00 84 1014.8
20260510033007 25 158 0.0 0.0 0.00 0.00 0.00 83 1014.7
20260510032503 25 156 0.0 3.2 0.00 0.00 0.00 83 1014.7
20260510032003 25 159 0.0 4.8 0.00 0.00 0.00 83 1014.6
20260510031458 25 147 0.0 4.8 0.00 0.00 0.00 83 1014.5
20260510030954 25 165 1.6 4.8 0.00 0.00 0.00 83 1014.4
20260510030450 25 135 0.0 3.2 0.00 0.00 0.00 83 1014.4
20260510025947 25 147 0.0 4.8 0.00 0.00 0.00 82 1014.4
20260510025445 25 144 1.6 3.2 0.00 0.00 0.00 81 1014.2
20260510024942 25 158 0.0 4.8 0.00 0.00 0.00 81 1014.2
20260510024438 25 131 0.0 3.2 0.00 0.00 0.00 81 1014.4
20260510023934 25 143 3.2 4.8 0.00 0.00 0.00 81 1014.2
20260510023431 25 180 0.0 1.6 0.00 0.00 0.00 81 1014.1
20260510022928 25 159 0.0 1.6 0.00 0.00 0.00 80 1013.6
20260510022427 25 156 0.0 3.2 0.00 0.00 0.00 80 1013.9
20260510021926 25 165 0.0 1.6 0.00 0.00 0.00 80 1013.7
20260510021424 25 110 0.0 0.0 0.00 0.00 0.00 80 1013.6
20260510020921 25 110 0.0 0.0 0.00 0.00 0.00 79 1013.6
20260510020421 25 156 0.0 1.6 0.00 0.00 0.00 78 1013.4
20260510015917 26 189 0.0 0.0 0.00 0.00 0.00 78 1013.4
20260510015413 26 189 0.0 0.0 0.00 0.00 0.00 78 1013.6
20260510014908 26 189 0.0 0.0 0.00 0.00 0.00 77 1013.1
20260510014406 26 76 1.6 1.6 0.00 0.00 0.00 76 1013.5
20260510013903 26 144 0.0 0.0 0.00 0.00 0.00 76 1013.3
20260510013357 26 144 0.0 3.2 0.00 0.00 0.00 75 1013.4
20260510012853 26 180 0.0 4.8 0.00 0.00 0.00 74 1013.3
20260510012348 27 123 0.0 4.8 0.00 0.00 0.00 73 1013.0
20260510011843 27 196 0.0 4.8 0.00 0.00 0.00 73 1013.3
20260510011338 27 204 1.6 4.8 0.00 0.00 0.00 72 1013.2
20260510010835 27 119 0.0 1.6 0.00 0.00 0.00 71 1013.2
20260510010332 27 118 0.0 6.4 0.00 0.00 0.00 70 1013.0
20260510005829 27 168 0.0 3.2 0.00 0.00 0.00 69 1013.0
20260510005325 28 124 0.0 3.2 0.00 0.00 0.00 68 1012.8
20260510004823 28 156 0.0 4.8 0.00 0.00 0.00 67 1013.1
20260510004320 28 111 3.2 4.8 0.00 0.00 0.00 65 1012.8
20260510003818 28 129 4.8 4.8 0.00 0.00 0.00 64 1012.7
20260510003315 29 153 4.8 6.4 0.00 0.00 0.00 63 1012.9
20260510002813 29 105 1.6 9.7 0.00 0.00 0.00 61 1012.6
20260510002311 29 121 0.0 4.8 0.00 0.00 0.00 60 1012.4
20260510001807 30 116 1.6 4.8 0.00 0.00 0.00 59 1012.6
20260510001306 30 109 3.2 4.8 0.00 0.00 0.00 58 1012.6
20260510000801 30 121 4.8 8.0 0.00 0.00 0.00 57 1012.8
20260510000259 30 172 0.0 8.0 0.00 0.00 0.00 57 1012.5
20260509235756 30 140 4.8 9.7 0.00 0.00 0.00 57 1012.5
20260509235252 30 133 6.4 14.5 0.00 0.00 0.00 56 1012.4
20260509234748 30 119 4.8 6.4 0.00 0.00 0.00 56 1012.4
20260509234245 30 160 3.2 8.0 0.00 0.00 0.00 55 1012.5
20260509233743 31 180 0.0 4.8 0.00 0.00 0.00 53 1012.4
20260509233240 31 165 0.0 8.0 0.00 0.00 0.00 51 1012.2
20260509232736 31 116 1.6 12.9 0.00 0.00 0.00 50 1012.2
20260509232233 31 112 6.4 9.7 0.00 0.00 0.00 49 1012.5
20260509231730 31 138 4.8 12.9 0.00 0.00 0.00 48 1012.3
20260509231227 31 122 4.8 9.7 0.00 0.00 0.00 47 1012.3
20260509230725 31 201 0.0 8.0 0.00 0.00 0.00 48 1012.3
20260509230221 32 118 9.7 9.7 0.00 0.00 0.00 48 1012.2
20260509225716 32 162 3.2 8.0 0.00 0.00 0.00 47 1012.0
20260509225212 31 122 8.0 11.3 0.00 0.00 0.00 48 1012.1
20260509224708 31 105 0.0 11.3 0.00 0.00 0.00 48 1012.2
20260509224206 31 112 0.0 11.3 0.00 0.00 0.00 49 1012.0
20260509223702 32 105 6.4 6.4 0.00 0.00 0.00 49 1012.1
20260509223159 32 132 4.8 8.0 0.00 0.00 0.00 49 1012.3
20260509222656 32 94 0.0 8.0 0.00 0.00 0.00 49 1012.3
20260509222151 32 119 3.2 8.0 0.00 0.00 0.00 49 1012.3
20260509221642 31 113 4.8 14.5 0.00 0.00 0.00 49 1012.3
20260509221138 31 108 3.2 11.3 0.00 0.00 0.00 51 1012.4
20260509220634 32 188 1.6 6.4 0.00 0.00 0.00 51 1012.0
20260509220130 31 120 6.4 6.4 0.00 0.00 0.00 50 1012.3
20260509215627 31 135 0.0 9.7 0.00 0.00 0.00 51 1012.1
20260509215123 31 112 4.8 4.8 0.00 0.00 0.00 52 1012.3
20260509214620 31 124 9.7 9.7 0.00 0.00 0.00 51 1012.3
20260509214111 31 161 3.2 9.7 0.00 0.00 0.00 51 1012.5
20260509213607 32 138 11.3 11.3 0.00 0.00 0.00 51 1012.4
20260509213104 31 153 3.2 12.9 0.00 0.00 0.00 52 1012.4
20260509212602 31 180 0.0 12.9 0.00 0.00 0.00 53 1012.6
20260509212058 32 108 3.2 11.3 0.00 0.00 0.00 54 1012.5
20260509211554 32 126 17.7 17.7 0.00 0.00 0.00 55 1012.6
20260509211051 32 180 0.0 6.4 0.00 0.00 0.00 56 1012.6
20260509210547 32 125 0.0 9.7 0.00 0.00 0.00 56 1012.6
20260509210044 32 114 9.7 14.5 0.00 0.00 0.00 54 1012.8
20260509205538 32 113 9.7 12.9 0.00 0.00 0.00 53 1012.8
20260509205034 32 121 9.7 12.9 0.00 0.00 0.00 53 1012.9
20260509204530 33 90 4.8 6.4 0.00 0.00 0.00 51 1013.0
20260509204027 32 170 0.0 4.8 0.00 0.00 0.00 50 1013.1
20260509203522 32 172 1.6 4.8 0.00 0.00 0.00 52 1013.0
20260509203021 33 189 0.0 3.2 0.00 0.00 0.00 54 1013.0
20260509202515 32 72 0.0 4.8 0.00 0.00 0.00 52 1013.2
20260509202011 32 42 0.0 4.8 0.00 0.00 0.00 53 1013.2
20260509201506 32 342 4.8 9.7 0.00 0.00 0.00 54 1013.3
20260509201004 32 58 0.0 8.0 0.00 0.00 0.00 55 1013.5
20260509200503 32 270 0.0 6.4 0.00 0.00 0.00 57 1013.6
20260509200000 32 319 0.0 3.2 0.00 0.00 0.00 58 1013.7
20260509195455 32 262 0.0 4.8 0.00 0.00 0.00 58 1013.4
20260509194950 32 252 3.2 6.4 0.00 0.00 0.00 57 1013.4
20260509194446 32 86 3.2 4.8 0.00 0.00 0.00 57 1013.4
20260509193943 31 323 0.0 8.0 0.00 0.00 0.00 58 1013.5
20260509193442 32 251 0.0 4.8 0.00 0.00 0.00 58 1013.5
20260509192938 31 329 0.0 14.5 0.00 0.00 0.00 60 1013.6
20260509192435 31 163 0.0 4.8 0.00 0.00 0.00 59 1013.6
20260509191930 31 144 0.0 6.4 0.00 0.00 0.00 58 1013.6
20260509191426 31 339 0.0 8.0 0.00 0.00 0.00 58 1013.5
20260509190922 31 345 6.4 8.0 0.00 0.00 0.00 58 1013.7
20260509190419 31 339 0.0 11.3 0.00 0.00 0.00 61 1013.8
20260509185917 31 330 3.2 6.4 0.00 0.00 0.00 61 1013.9
20260509185414 32 204 0.0 4.8 0.00 0.00 0.00 59 1014.0
20260509184910 31 343 8.0 8.0 0.00 0.00 0.00 59 1014.1
20260509184408 32 233 3.2 4.8 0.00 0.00 0.00 59 1014.2
20260509183905 31 216 0.0 8.0 0.00 0.00 0.00 62 1014.2
20260509183405 31 156 0.0 1.6 0.00 0.00 0.00 60 1014.5
20260509182902 31 322 0.0 3.2 0.00 0.00 0.00 65 1014.3
20260509182358 30 244 1.6 4.8 0.00 0.00 0.00 62 1014.5
20260509181856 30 14 4.8 8.0 0.00 0.00 0.00 66 1014.5
20260509181347 30 240 0.0 6.4 0.00 0.00 0.00 67 1014.8
20260509180845 31 306 0.0 4.8 0.00 0.00 0.00 63 1014.8
20260509180341 31 156 0.0 4.8 0.00 0.00 0.00 62 1014.9
20260509175838 31 242 3.2 4.8 0.00 0.00 0.00 66 1014.6
20260509175334 31 180 0.0 3.2 0.00 0.00 0.00 65 1014.7
20260509174830 31 270 0.0 4.8 0.00 0.00 0.00 66 1014.8
20260509174326 30 159 0.0 9.7 0.00 0.00 0.00 68 1015.3
20260509173821 30 187 0.0 3.2 0.00 0.00 0.00 66 1015.0
20260509173312 29 305 1.6 11.3 0.00 0.00 0.00 69 1015.2
20260509172808 30 42 0.0 4.8 0.00 0.00 0.00 70 1015.4
20260509172306 29 189 0.0 4.8 0.00 0.00 0.00 69 1015.5
20260509171800 30 156 0.0 3.2 0.00 0.00 0.00 67 1015.4
20260509171251 30 270 0.0 8.0 0.00 0.00 0.00 72 1015.2
20260509170747 30 64 3.2 4.8 0.00 0.00 0.00 68 1015.4
20260509170244 30 232 0.0 3.2 0.00 0.00 0.00 66 1015.5
20260509165742 30 23 3.2 4.8 0.00 0.00 0.00 69 1015.4
20260509165238 29 195 0.0 4.8 0.00 0.00 0.00 70 1015.4
20260509164734 29 270 1.6 4.8 0.00 0.00 0.00 70 1015.3
20260509164230 29 169 3.2 3.2 0.00 0.00 0.00 68 1015.5
20260509163727 29 16 4.8 4.8 0.00 0.00 0.00 71 1015.6
20260509163223 29 173 1.6 4.8 0.00 0.00 0.00 71 1015.3
20260509162721 29 180 0.0 1.6 0.00 0.00 0.00 72 1015.2
20260509162216 28 180 1.6 3.2 0.00 0.00 0.00 74 1015.4
20260509161712 28 165 3.2 4.8 0.00 0.00 0.00 75 1015.5
20260509161209 28 193 0.0 4.8 0.00 0.00 0.00 77 1015.6
20260509160704 28 241 3.2 6.4 0.00 0.00 0.00 77 1015.6
20260509160200 27 180 3.2 4.8 0.00 0.00 0.00 81 1015.3
20260509155655 27 125 0.0 3.2 0.00 0.00 0.00 82 1015.7
20260509155152 27 180 1.6 6.4 0.00 0.00 0.00 83 1015.6
20260509154648 26 216 1.6 6.4 0.00 0.00 0.00 85 1015.8
20260509154145 25 270 0.0 6.4 0.00 0.00 0.00 90 1015.6
20260509153642 25 187 1.6 4.8 0.00 0.00 0.00 90 1015.8
20260509153139 25 163 0.0 4.8 0.00 0.00 0.00 90 1015.6
20260509152634 25 150 1.6 6.4 0.00 0.00 0.00 91 1015.7
20260509152132 25 167 3.2 4.8 0.00 0.00 0.00 90 1015.7
20260509151628 25 173 1.6 3.2 0.00 0.00 0.00 91 1015.5
20260509151126 24 172 1.6 4.8 0.00 0.00 0.00 92 1015.5
20260509150624 24 165 0.0 4.8 0.00 0.00 0.00 93 1015.6
20260509150122 24 180 0.0 6.4 0.00 0.00 0.00 93 1015.5
20260509145618 24 153 0.0 4.8 0.00 0.00 0.00 93 1015.3
20260509145112 24 172 1.6 4.8 0.00 0.00 0.00 94 1015.5
20260509144610 23 116 4.8 4.8 0.00 0.00 0.00 95 1015.0
20260509144107 23 98 0.0 3.2 0.00 0.00 0.00 97 1015.4
20260509143604 23 105 0.0 4.8 0.00 0.00 0.00 98 1014.9
20260509143102 23 118 0.0 4.8 0.00 0.00 0.00 98 1014.8
20260509142602 23 199 0.0 4.8 0.00 0.00 0.00 99 1015.0
20260509142058 22 171 0.0 3.2 0.00 0.00 0.00 99 1014.8
20260509141554 22 90 1.6 11.3 0.00 0.00 0.00 99 1014.6
20260509141051 23 156 3.2 6.4 0.00 0.00 0.00 99 1014.7
20260509140548 22 156 1.6 6.4 0.00 0.00 0.00 99 1014.6
20260509140046 23 250 0.0 4.8 0.00 0.00 0.00 99 1014.3
20260509135543 23 217 0.0 4.8 0.00 0.00 0.00 99 1014.2
20260509135041 23 171 0.0 3.2 0.00 0.00 0.00 99 1014.5
20260509134537 22 94 0.0 6.4 0.00 0.00 0.00 99 1014.5
20260509134036 22 138 0.0 4.8 0.00 0.00 0.00 99 1014.4
20260509133532 22 171 0.0 4.8 0.00 0.00 0.00 99 1014.6
20260509133029 22 156 0.0 1.6 0.00 0.00 0.00 99 1014.6
20260509132527 22 188 1.6 3.2 0.00 0.00 0.00 99 1014.7
20260509132026 22 119 0.0 0.0 0.00 0.00 0.00 99 1015.2
20260509131521 21 67 0.0 1.6 0.00 0.00 0.00 99 1015.5
20260509131018 21 55 0.0 1.6 0.00 0.00 0.00 99 1015.6
20260509130514 21 0 1.6 3.2 0.00 0.00 0.00 99 1015.7
20260509130011 21 9 0.0 3.2 0.00 0.00 0.00 99 1015.6
20260509125507 21 27 0.0 0.0 0.00 0.00 0.00 99 1015.4
20260509125003 21 16 0.0 0.0 0.00 0.00 0.00 99 1015.4
20260509124455 21 8 0.0 0.0 0.00 0.00 0.00 99 1015.0
20260509123953 21 21 0.0 0.0 0.00 0.00 0.00 99 1015.2
20260509123450 21 21 0.0 0.0 0.00 0.00 0.00 99 1014.8
20260509122945 22 21 0.0 0.0 0.00 0.00 0.00 99 1014.9
20260509122443 21 21 0.0 1.6 0.00 0.00 0.00 99 1014.8
20260509121939 22 30 0.0 0.0 0.00 0.00 0.00 99 1014.8
20260509121436 21 30 0.0 0.0 0.00 0.00 0.00 99 1014.6
20260509120934 21 30 0.0 0.0 0.00 0.00 0.00 99 1014.6
20260509120431 21 30 0.0 0.0 0.00 0.00 0.00 99 1014.6
20260509115929 21 30 0.0 0.0 0.00 0.00 0.00 99 1014.9
20260509115426 21 30 0.0 0.0 0.00 0.00 0.00 99 1014.9
20260509114924 21 30 0.0 0.0 0.00 0.00 0.00 99 1015.3
20260509114423 21 105 0.0 0.0 0.00 0.00 0.00 99 1015.2
20260509113922 21 105 0.0 0.0 0.00 0.00 0.00 99 1015.2
20260509113419 21 61 0.0 1.6 0.00 0.00 0.00 99 1015.3
20260509112916 21 76 0.0 0.0 0.00 0.00 0.00 99 1015.7
20260509112413 22 9 0.0 3.2 0.00 0.00 0.00 99 1015.8
20260509111910 22 27 0.0 1.6 0.00 0.00 0.00 99 1015.9
20260509111406 22 37 0.0 3.2 0.00 0.00 0.00 99 1016.1
20260509110904 21 74 3.2 3.2 0.00 0.00 0.00 99 1015.8
20260509110359 22 84 0.0 0.0 0.00 0.00 0.00 99 1015.7
20260509105858 21 54 0.0 3.2 0.00 0.00 0.00 99 1015.9
20260509105356 21 0 0.0 3.2 0.00 0.00 0.00 99 1016.0
20260509104852 22 55 0.0 1.6 0.00 0.00 0.00 99 1016.2
20260509104348 22 61 0.0 3.2 0.00 0.00 0.00 99 1016.1
20260509103846 22 61 0.0 1.6 0.00 0.00 0.00 99 1016.0
20260509103344 21 70 0.0 4.8 0.00 0.00 0.00 99 1016.1
20260509102842 22 76 0.0 6.4 0.00 0.00 0.00 99 1016.0
20260509102339 22 85 1.6 3.2 0.00 0.00 0.00 99 1016.1
20260509101835 22 0 0.0 1.6 0.00 0.00 0.00 99 1015.8
20260509101331 22 75 0.0 1.6 0.00 0.00 0.00 99 1015.8
20260509100830 22 97 0.0 1.6 0.00 0.00 0.00 99 1015.5
20260509100326 21 119 0.0 0.0 0.00 0.00 0.00 99 1015.6
20260509095823 21 119 0.0 0.0 0.00 0.00 0.00 99 1015.0
20260509095320 21 119 0.0 0.0 0.00 0.00 0.00 99 1014.6
20260509094817 22 119 0.0 0.0 0.00 0.00 0.00 99 1014.4
20260509094314 21 119 0.0 0.0 0.00 0.00 0.00 99 1014.4
20260509093811 21 119 0.0 0.0 0.00 0.00 0.00 99 1014.5
20260509093309 22 119 0.0 0.0 0.00 0.00 0.00 99 1014.4
20260509092807 21 119 0.0 1.6 0.00 0.00 0.00 99 1014.4
20260509092306 22 116 0.0 1.6 0.00 0.00 0.00 99 1014.5
20260509091803 22 125 1.6 3.2 0.00 0.00 0.00 99 1014.4
20260509091259 22 90 0.0 0.0 0.00 0.00 0.00 99 1014.6
20260509090756 22 90 0.0 0.0 0.00 0.00 0.00 99 1014.7
20260509090253 22 90 0.0 0.0 0.00 0.00 0.00 99 1014.6
20260509085751 22 90 0.0 0.0 0.00 0.00 0.00 99 1014.3
20260509085248 22 90 0.0 0.0 0.00 0.00 0.00 99 1014.3
20260509084744 22 90 0.0 0.0 0.00 0.00 0.00 99 1014.5
20260509084241 22 95 1.6 1.6 0.00 0.00 0.00 99 1014.5
20260509083739 22 98 0.0 3.2 0.00 0.00 0.00 99 1014.6
20260509083236 22 108 0.0 0.0 0.00 0.00 0.00 99 1014.8
20260509082732 22 113 0.0 0.0 0.00 0.00 0.00 99 1014.8
20260509082229 22 98 0.0 1.6 0.00 0.00 0.00 99 1014.7
20260509081726 22 98 0.0 1.6 0.00 0.00 0.00 98 1014.8
20260509081224 22 90 0.0 0.0 0.00 0.00 0.00 98 1015.3
20260509080722 22 50 0.0 3.2 0.00 0.00 0.00 98 1014.9
20260509080219 22 55 0.0 1.6 0.00 0.00 0.00 98 1014.9
20260509075717 22 50 0.0 4.8 0.00 0.00 0.00 97 1014.7
20260509075215 22 82 0.0 3.2 0.00 0.00 0.00 97 1014.8
20260509074712 22 24 0.0 1.6 0.00 0.00 0.00 97 1014.7
20260509074209 22 61 0.0 4.8 0.00 0.00 0.00 97 1014.8
20260509073705 22 67 0.0 1.6 0.00 0.00 0.00 97 1014.8
20260509073201 22 90 0.0 1.6 0.00 0.00 0.00 96 1014.7
20260509072658 22 21 0.0 0.0 0.00 0.00 0.00 96 1014.8
20260509072155 22 98 0.0 0.0 0.00 0.00 0.00 96 1014.8
20260509071651 22 98 0.0 0.0 0.00 0.00 0.00 96 1014.9
20260509071148 22 150 0.0 4.8 0.00 0.00 0.00 96 1014.8
20260509070645 22 156 1.6 3.2 0.00 0.00 0.00 96 1014.9
20260509070141 22 156 0.0 1.6 0.00 0.00 0.00 96 1015.2
20260509065637 22 126 0.0 0.0 0.00 0.00 0.00 96 1015.3
20260509065133 22 119 0.0 3.2 0.00 0.00 0.00 96 1015.2
20260509064631 22 164 0.0 1.6 0.00 0.00 0.00 96 1015.2
20260509064130 22 165 0.0 0.0 0.00 0.00 0.00 96 1014.8
20260509063626 22 159 0.0 3.2 0.00 0.00 0.00 96 1014.6
20260509063122 22 156 0.0 3.2 0.00 0.00 0.00 96 1014.5
20260509062620 22 165 0.0 0.0 0.00 0.00 0.00 96 1014.8
20260509062116 22 126 0.0 3.2 0.00 0.00 0.00 96 1014.8
20260509061613 22 172 0.0 4.8 0.00 0.00 0.00 96 1014.8
20260509061111 22 165 0.0 6.4 0.00 0.00 0.00 96 1014.7
20260509060608 22 156 0.0 0.0 0.00 0.00 0.00 96 1014.5
20260509060103 22 187 0.0 3.2 0.00 0.00 0.00 96 1014.4
20260509055559 22 160 3.2 3.2 0.00 0.00 0.00 96 1014.2
20260509055055 22 143 3.2 6.4 0.00 0.00 0.00 97 1014.4
20260509054552 22 171 0.0 3.2 0.00 0.00 0.00 97 1014.5
20260509054050 22 122 0.0 3.2 0.00 0.00 0.00 97 1014.5
20260509053548 21 161 3.2 3.2 0.00 0.00 0.00 97 1014.4
20260509053045 21 186 3.2 3.2 0.00 0.00 0.00 97 1014.6
20260509052543 21 122 0.0 3.2 0.00 0.00 0.00 97 1014.1
20260509052041 21 171 0.0 3.2 0.00 0.00 0.00 97 1014.2
20260509051538 21 113 0.0 0.0 0.00 0.00 0.00 97 1014.1
20260509051035 21 113 0.0 0.0 0.00 0.00 0.00 97 1013.9
20260509050532 21 98 0.0 0.0 0.00 0.00 0.00 97 1014.0
20260509050023 21 113 0.0 3.2 0.00 0.00 0.00 96 1013.8
20260509045521 21 147 0.0 3.2 0.00 0.00 0.00 96 1014.0
20260509045017 21 111 0.0 4.8 0.00 0.00 0.00 96 1013.9
20260509044515 21 98 0.0 0.0 0.00 0.00 0.00 96 1013.9
20260509044012 21 150 3.2 3.2 0.00 0.00 0.00 96 1014.0
20260509043508 21 104 0.0 1.6 0.00 0.00 0.00 96 1014.0
20260509043005 21 123 0.0 3.2 0.00 0.00 0.00 95 1014.0
20260509042500 21 102 0.0 3.2 0.00 0.00 0.00 95 1013.9
20260509041956 21 90 0.0 3.2 0.00 0.00 0.00 95 1014.2
20260509041453 21 101 0.0 3.2 0.00 0.00 0.00 95 1014.1
20260509040951 21 105 0.0 3.2 0.00 0.00 0.00 94 1014.2
20260509040449 21 82 0.0 0.0 0.00 0.00 0.00 94 1014.2
20260509035945 21 90 0.0 1.6 0.00 0.00 0.00 94 1014.4
20260509035442 21 122 0.0 3.2 0.00 0.00 0.00 94 1014.3
20260509034938 21 97 0.0 0.0 0.00 0.00 0.00 94 1014.2
20260509034437 21 234 0.0 0.0 0.00 0.00 0.00 93 1014.3